When you browse on this site, cookies collect data to enhance your experience and personalize the content and advertising you see.
Visit our Privacy Policy to learn more. By continuing to use the site, you agree to this use of cookies and data.
  • In Latvia
  • List of Countries
  • For 7 days
  • Water Temperature
  • Satellite Maps
  • Weather Map
  • Weather Widgets
  • user-avatar
    Login

    Hourly Weather Laszkar Gah

    Today, 17 February, Sunday

    Time Temperature Precipitation Wind Pressure Humidity
    00:00 +13°C° 0.1 mm 5 mps 692 mmHg 38%
    01:00 +12°C° 0.1 mm 5 mps 692 mmHg 40%
    02:00 +12°C° 0 mm 5 mps 691 mmHg 40%
    03:00 +12°C° 0 mm 5 mps 691 mmHg 41%
    04:00 +10°C° 0 mm 5 mps 691 mmHg 44%
    05:00 +10°C° 0 mm 5 mps 691 mmHg 44%
    06:00 +12°C° 0 mm 4 mps 691 mmHg 44%
    07:00 +12°C° 0 mm 4 mps 691 mmHg 44%
    08:00 +12°C° 0.5 mm 4 mps 691 mmHg 50%
    09:00 +12°C° 0.5 mm 3 mps 691 mmHg 55%
    10:00 +12°C° 0 mm 3 mps 692 mmHg 56%
    11:00 +13°C° 0.7 mm 2 mps 691 mmHg 61%
    12:00 +13°C° 0.7 mm 2 mps 691 mmHg 67%
    13:00 +12°C° 0.7 mm 1 mps 690 mmHg 72%
    14:00 +13°C° 0 mm 2 mps 690 mmHg 70%
    15:00 +13°C° 0 mm 2 mps 690 mmHg 68%
    16:00 +13°C° 0 mm 3 mps 690 mmHg 66%
    17:00 +12°C° 0 mm 3 mps 690 mmHg 67%
    18:00 +13°C° 0 mm 2 mps 690 mmHg 69%
    19:00 +12°C° 0 mm 2 mps 690 mmHg 70%
    20:00 +12°C° 0 mm 2 mps 689 mmHg 70%
    21:00 +12°C° 0 mm 2 mps 689 mmHg 69%
    22:00 +12°C° 0 mm 2 mps 689 mmHg 69%
    23:00 +10°C° 0 mm 2 mps 689 mmHg 69%

    Tomorrow, 18 February, Monday

    Time Temperature Precipitation Wind Pressure Humidity
    00:00 +10°C° 0 mm 2 mps 689 mmHg 69%
    01:00 +10°C° 0 mm 2 mps 688 mmHg 70%
    02:00 +10°C° 0 mm 2 mps 688 mmHg 69%
    03:00 +10°C° 0 mm 2 mps 688 mmHg 68%
    04:00 +11°C° 0 mm 1 mps 689 mmHg 67%
    05:00 +11°C° 0.1 mm 1 mps 689 mmHg 68%
    06:00 +10°C° 0.1 mm 2 mps 689 mmHg 68%
    07:00 +10°C° 0.1 mm 2 mps 690 mmHg 69%
    08:00 +12°C° 0 mm 2 mps 690 mmHg 61%
    09:00 +13°C° 0 mm 2 mps 691 mmHg 53%
    10:00 +14°C° 0 mm 2 mps 691 mmHg 45%
    11:00 +15°C° 0 mm 2 mps 691 mmHg 41%
    12:00 +16°C° 0 mm 2 mps 691 mmHg 37%
    13:00 +16°C° 0 mm 3 mps 691 mmHg 33%
    14:00 +17°C° 0 mm 3 mps 691 mmHg 32%
    15:00 +17°C° 0 mm 3 mps 690 mmHg 31%
    16:00 +17°C° 0 mm 3 mps 690 mmHg 30%
    17:00 +16°C° 0 mm 3 mps 690 mmHg 33%
    18:00 +15°C° 0 mm 2 mps 690 mmHg 37%
    19:00 +14°C° 0 mm 2 mps 690 mmHg 41%
    20:00 +13°C° 0 mm 1 mps 690 mmHg 43%
    21:00 +13°C° 0 mm 1 mps 690 mmHg 45%
    22:00 +12°C° 0 mm 1 mps 690 mmHg 47%
    23:00 +12°C° 0 mm 1 mps 690 mmHg 47%

    Day after tomorrow, 19 February, Tuesday

    Time Temperature Precipitation Wind Pressure Humidity
    00:00 +12°C° 0 mm 1 mps 689 mmHg 47%
    01:00 +10°C° 0 mm 2 mps 689 mmHg 47%
    02:00 +10°C° 0 mm 2 mps 689 mmHg 47%
    03:00 +10°C° 0 mm 3 mps 689 mmHg 48%
    04:00 +10°C° 0 mm 3 mps 689 mmHg 48%
    05:00 +10°C° 0 mm 3 mps 689 mmHg 49%
    06:00 +8°C° 0 mm 4 mps 689 mmHg 50%
    07:00 +8°C° 0 mm 4 mps 689 mmHg 51%
    08:00 +10°C° 0 mm 5 mps 690 mmHg 45%
    09:00 +13°C° 0 mm 6 mps 690 mmHg 39%
    10:00 +14°C° 0 mm 6 mps 691 mmHg 33%
    11:00 +16°C° 0 mm 6 mps 690 mmHg 30%
    12:00 +17°C° 0 mm 6 mps 690 mmHg 27%
    13:00 +19°C° 0 mm 5 mps 690 mmHg 24%
    14:00 +20°C° 0 mm 5 mps 690 mmHg 24%
    15:00 +20°C° 0 mm 4 mps 690 mmHg 24%
    16:00 +21°C° 0 mm 3 mps 689 mmHg 24%
    17:00 +19°C° 0 mm 3 mps 689 mmHg 27%
    18:00 +18°C° 0 mm 3 mps 689 mmHg 31%
    19:00 +16°C° 0 mm 3 mps 689 mmHg 35%
    20:00 +16°C° 0 mm 3 mps 690 mmHg 37%
    21:00 +14°C° 0 mm 3 mps 690 mmHg 38%
    22:00 +13°C° 0 mm 4 mps 690 mmHg 40%
    23:00 +13°C° 0 mm 4 mps 690 mmHg 41%

    20 February, Wednesday

    Time Temperature Precipitation Wind Pressure Humidity
    00:00 +13°C° 0 mm 4 mps 690 mmHg 42%
    01:00 +12°C° 0 mm 5 mps 690 mmHg 43%
    02:00 +12°C° 0 mm 5 mps 690 mmHg 44%
    03:00 +12°C° 0 mm 5 mps 690 mmHg 44%
    04:00 +12°C° 0 mm 5 mps 689 mmHg 44%
    05:00 +12°C° 0.2 mm 4 mps 690 mmHg 49%
    06:00 +11°C° 0.2 mm 4 mps 690 mmHg 53%
    07:00 +11°C° 0.2 mm 3 mps 690 mmHg 57%
    08:00 +11°C° 0.6 mm 3 mps 691 mmHg 61%
    09:00 +12°C° 0.6 mm 2 mps 691 mmHg 65%
    10:00 +12°C° 0.6 mm 2 mps 691 mmHg 69%
    11:00 +11°C° 1.2 mm 3 mps 690 mmHg 71%
    12:00 +11°C° 1.2 mm 3 mps 690 mmHg 74%
    13:00 +10°C° 1.2 mm 4 mps 690 mmHg 76%
    14:00 +9°C° 1.8 mm 5 mps 689 mmHg 78%
    15:00 +8°C° 1.8 mm 5 mps 689 mmHg 81%
    16:00 +8°C° 1.8 mm 6 mps 689 mmHg 83%
    17:00 +8°C° 0.4 mm 6 mps 690 mmHg 80%
    18:00 +8°C° 0.4 mm 6 mps 690 mmHg 76%
    19:00 +8°C° 0.4 mm 5 mps 691 mmHg 72%
    20:00 +8°C° 0 mm 5 mps 692 mmHg 72%
    21:00 +8°C° 0 mm 6 mps 692 mmHg 72%
    22:00 +8°C° 0 mm 6 mps 693 mmHg 73%
    23:00 +7°C° 0 mm 6 mps 693 mmHg 69%

    21 February, Thursday

    Time Temperature Precipitation Wind Pressure Humidity
    00:00 +5°C° 0 mm 6 mps 693 mmHg 65%
    01:00 +5°C° 0 mm 6 mps 693 mmHg 61%
    02:00 +4°C° 0 mm 6 mps 693 mmHg 61%
    03:00 +3°C° 0 mm 6 mps 694 mmHg 60%
    04:00 +3°C° 0 mm 6 mps 694 mmHg 60%
    05:00 +2°C° 0 mm 6 mps 695 mmHg 60%
    06:00 +2°C° 0 mm 6 mps 695 mmHg 59%
    07:00 +2°C° 0 mm 6 mps 696 mmHg 59%
    08:00 +3°C° 0 mm 6 mps 697 mmHg 53%
    09:00 +4°C° 0 mm 7 mps 697 mmHg 47%
    10:00 +5°C° 0 mm 7 mps 698 mmHg 42%
    11:00 +6°C° 0 mm 8 mps 698 mmHg 37%
    12:00 +6°C° 0 mm 8 mps 697 mmHg 32%
    13:00 +7°C° 0 mm 8 mps 697 mmHg 27%
    14:00 +8°C° 0 mm 7 mps 697 mmHg 28%
    15:00 +8°C° 0 mm 7 mps 697 mmHg 28%
    16:00 +8°C° 0 mm 6 mps 696 mmHg 28%
    17:00 +7°C° 0 mm 5 mps 697 mmHg 31%
    18:00 +7°C° 0 mm 4 mps 697 mmHg 34%
    19:00 +7°C° 0 mm 3 mps 697 mmHg 37%
    20:00 +7°C° 0 mm 3 mps 698 mmHg 39%
    21:00 +5°C° 0 mm 3 mps 698 mmHg 40%
    22:00 +5°C° 0 mm 3 mps 698 mmHg 42%
    23:00 +5°C° 0 mm 2 mps 698 mmHg 44%

    22 February, Friday

    Time Temperature Precipitation Wind Pressure Humidity
    00:00 +5°C° 0 mm 2 mps 698 mmHg 45%
    01:00 +5°C° 0 mm 1 mps 697 mmHg 46%
    02:00 +5°C° 0 mm 1 mps 697 mmHg 47%
    03:00 +4°C° 0 mm 1 mps 697 mmHg 48%
    04:00 +3°C° 0 mm 0 mps 697 mmHg 50%
    05:00 +4°C° 0 mm 1 mps 697 mmHg 48%
    06:00 +4°C° 0 mm 1 mps 697 mmHg 46%
    07:00 +3°C° 0 mm 2 mps 698 mmHg 44%
    08:00 +5°C° 0 mm 2 mps 698 mmHg 39%
    09:00 +5°C° 0 mm 3 mps 698 mmHg 34%
    10:00 +8°C° 0 mm 3 mps 699 mmHg 30%
    11:00 +8°C° 0 mm 3 mps 698 mmHg 27%
    12:00 +9°C° 0 mm 3 mps 698 mmHg 24%
    13:00 +10°C° 0 mm 2 mps 697 mmHg 21%
    14:00 +12°C° 0 mm 2 mps 697 mmHg 20%
    15:00 +12°C° 0 mm 2 mps 696 mmHg 19%
    16:00 +12°C° 0 mm 2 mps 696 mmHg 18%
    17:00 +12°C° 0 mm 2 mps 696 mmHg 21%
    18:00 +10°C° 0 mm 2 mps 696 mmHg 23%
    19:00 +10°C° 0 mm 2 mps 696 mmHg 26%
    20:00 +9°C° 0 mm 2 mps 696 mmHg 27%
    21:00 +9°C° 0 mm 3 mps 696 mmHg 29%
    22:00 +9°C° 0 mm 3 mps 696 mmHg 30%
    23:00 +8°C° 0 mm 3 mps 696 mmHg 31%
    Show more